Weather in Bratskoye

Russia / Chechen Republic     43°39′04″N   44°53′14″E
temp.,
°C
wind,
m/s
gust,
m/s
humid.,
%
clouds,
%
prec.,
mm/h
press.,
hPa
HPBL,
m
20 april, tue
tue2000:00+17e355876 0.0 1015208
03:00+13e366098 0.0 1013143
06:00+12ese4866100 0.0 1011225
09:00+18ese6856100 0.0 1009453
12:00+23e5646100 0.0 1005733
15:00+26ene334199 0.0 1005858
18:00+22ene345795 0.0 100591
21:00+17nnw3472100 0.1 100773
21 april, wed
wed2100:00+15nw61384100 0.9 1012509
03:00+15wnw61073100 1.8 1015612
06:00+14wnw4861100 0.0 1017424
09:00+14nw4663100 0.0 1019648
12:00+15nnw445774 0.0 1019894
15:00+18n334780 0.0 10181632
18:00+16nne3559100 0.1 1019203
21:00+15ne2458100 0.1 1021166
22 april, thu
thu2200:00+14ne2260100 0.0 102176
03:00+13nne2364100 0.0 1021119
06:00+12ne2362100 0.0 1021112
09:00+13n3472100 0.0 1022358
12:00+13n4571100 0.0 1023690
15:00+16ne335447 0.0 10221257
18:00+14nne3366100 0.0 1023248
21:00+12sse2389100 1.7 1023164
23 april, fri
fri2300:00+11nw1195100 5.9 102287
03:00+11w2393100 11.3 1023133
06:00+11wsw2295100 4.5 1023180
09:00+11wsw3492100 6.9 1024222
12:00+12w3487100 1.7 1024332
15:00+12sw348277 2.0 1023279
18:00+14sw22715 0.0 102344
21:00+11sw11815 0.0 102310
24 april, sat
sat2400:00+10s22830 0.0 102210
03:00+9sse1182100 0.0 102110
06:00+10se1278100 0.0 102018
09:00+15e346166 0.0 1019507
12:00+20e454626 0.0 10181160
15:00+22ene33395 0.0 10171765
18:00+18ese58555 0.0 1017282
21:00+14ese476255 0.0 1019218